Location: Namasale
(1.5000°N, 32.6167°E)
Time: 23:52:40
(UTC+00:00)

Vanguard 3 - Pass Details

Date: 02 December 2021
Orbit: 508 x 3260 km, 33.3° (Epoch: 27 January)

Event Time Altitude Azimuth Distance (km) Brightness Sun altitude
Exits shadow 00:28:21 48° 5° (N) 3,887 10.2 -44.0°
Drops below altitude 10° 00:42:15 10° 41° (NE) 5,865 11.6 -41.0°
Sets 00:46:35 0° 46° (NE) 6,652 12.0 -40.0°
